FW8927 Weather Reports


Display with metric or nautical units.
time (UTC)temp
F
wind
direction
speed
MPH
gust
MPH
rain 1hr
in
rain 24hr
in
rain mn
in
humidity
%
barometer
mb
20240624031554 74 0 0.0 2.0 0.00 0.00 0.00 95 1008.7
20240624030100 75 0 1.0 2.0 0.00 0.00 0.00 93 1008.5
20240624024603 75 0 1.0 4.0 0.00 0.00 0.00 91 1008.5
20240624023053 76 69 1.0 3.0 0.00 0.00 0.00 92 1008.5
20240624021553 76 0 1.0 7.0 0.00 0.00 0.00 91 1008.0
20240624020058 76 223 2.0 7.0 0.00 0.00 0.00 91 1007.5
20240624014553 76 263 2.0 6.0 0.00 0.00 0.00 91 1007.5
20240624013052 77 225 2.0 4.0 0.00 0.00 0.00 89 1007.2
20240624011553 78 261 1.0 4.0 0.00 0.00 0.00 88 1007.4
20240624010055 78 294 1.0 7.0 0.00 0.00 0.00 87 1007.1
20240624004602 79 229 3.0 9.0 0.00 0.00 0.00 86 1007.2
20240624003103 79 328 2.0 12.0 0.00 0.00 0.00 85 1007.2
20240624001647 80 275 2.0 12.0 0.00 0.00 0.00 83 1007.2
20240624000054 80 248 2.0 14.0 0.00 0.00 0.00 82 1007.2
20240623234552 80 281 2.0 15.0 0.00 0.00 0.00 82 1007.2
20240623233052 80 69 3.0 8.0 0.00 0.00 0.00 81 1007.3
20240623231610 81 289 5.0 12.0 0.00 0.00 0.00 79 1007.2
20240623230053 82 254 4.0 10.0 0.00 0.00 0.00 78 1007.2
20240623224608 82 0 3.0 12.0 0.00 0.00 0.00 77 1007.1
20240623223100 82 261 4.0 10.0 0.00 0.00 0.00 77 1006.8
20240623221601 82 257 3.0 7.0 0.00 0.00 0.00 77 1007.0
20240623220059 83 263 4.0 12.0 0.00 0.00 0.00 75 1007.3
20240623214558 82 240 5.0 15.0 0.00 0.00 0.00 75 1007.4
20240623213052 83 271 5.0 12.0 0.00 0.00 0.00 75 1007.4
20240623211553 83 218 5.0 13.0 0.00 0.00 0.00 75 1007.6
20240623210057 83 258 7.0 13.0 0.00 0.00 0.00 74 1007.7
20240623204553 83 209 4.0 13.0 0.00 0.00 0.00 75 1007.8
20240623203104 83 288 4.0 14.0 0.00 0.00 0.00 75 1008.0
20240623201549 83 299 3.0 12.0 0.00 0.00 0.00 76 1008.1
20240623200050 82 233 4.0 13.0 0.00 0.00 0.00 76 1008.3
20240623194558 83 290 7.0 17.0 0.00 0.00 0.00 74 1008.5
20240623193101 83 182 4.0 13.0 0.00 0.00 0.00 76 1008.7
20240623191559 82 290 4.0 10.0 0.00 0.00 0.00 77 1008.9
20240623190051 82 312 3.0 11.0 0.00 0.00 0.00 76 1009.0
20240623184554 81 319 5.0 14.0 0.00 0.00 0.00 75 1009.2
20240623183053 83 202 7.0 17.0 0.00 0.00 0.00 73 1009.4
20240623181552 83 300 6.0 18.0 0.00 0.00 0.00 72 1009.2
20240623180059 82 300 7.0 17.0 0.00 0.00 0.00 73 1009.5
20240623174557 82 21 6.0 13.0 0.00 0.00 0.00 75 1009.4
20240623173100 82 223 3.0 13.0 0.00 0.00 0.00 76 1009.5
20240623171552 82 250 4.0 11.0 0.00 0.00 0.00 73 1009.3
20240623170054 82 189 7.0 14.0 0.00 0.00 0.00 72 1009.4
20240623164553 82 295 6.0 11.0 0.00 0.00 0.00 74 1009.5
20240623163051 81 252 5.0 13.0 0.00 0.00 0.00 75 1009.5
20240623161559 81 198 5.0 11.0 0.00 0.00 0.00 76 1009.6
20240623160054 80 269 4.0 13.0 0.00 0.00 0.00 76 1009.7
20240623154555 80 279 4.0 10.0 0.00 0.00 0.00 76 1009.6
20240623153052 81 190 5.0 13.0 0.00 0.00 0.00 76 1009.4
20240623151553 81 263 5.0 12.0 0.00 0.00 0.00 75 1009.8
20240623150052 81 252 7.0 14.0 0.00 0.00 0.00 74 1010.0
20240623144609 81 250 6.0 14.0 0.00 0.00 0.00 74 1010.2
20240623143050 82 204 5.0 16.0 0.00 0.00 0.00 73 1010.4
20240623141556 82 250 4.0 9.0 0.00 0.00 0.00 76 1010.7
20240623140119 80 223 3.0 12.0 0.00 0.00 0.00 77 1011.0
20240623134553 80 249 3.0 10.0 0.00 0.00 0.00 77 1011.2
20240623133057 79 278 5.0 14.0 0.00 0.00 0.00 77 1011.4
20240623131603 78 261 3.0 8.0 0.00 0.00 0.00 81 1011.3
20240623130049 77 238 3.0 9.0 0.00 0.00 0.00 83 1011.3
20240623124608 76 275 5.0 10.0 0.00 0.00 0.00 84 1011.2
20240623123105 75 219 1.0 7.0 0.00 0.00 0.00 87 1011.1
20240623121556 74 213 4.0 11.0 0.00 0.00 0.00 89 1011.0
20240623120050 74 283 3.0 7.0 0.00 0.00 0.00 90 1010.9
20240623114552 73 221 3.0 9.0 0.00 0.00 0.00 90 1010.7
20240623113050 73 202 3.0 10.0 0.00 0.00 0.00 91 1010.6
20240623111551 72 213 1.0 8.0 0.00 0.00 0.00 92 1010.7
20240623110058 72 231 3.0 8.0 0.00 0.00 0.00 92 1010.6
20240623104554 72 242 3.0 8.0 0.00 0.00 0.00 92 1010.4
20240623103051 72 238 3.0 6.0 0.00 0.00 0.00 92 1010.3
20240623101600 72 205 2.0 7.0 0.00 0.00 0.00 91 1010.3
20240623100059 73 221 4.0 7.0 0.00 0.00 0.00 91 1010.5
20240623094553 73 234 2.0 6.0 0.00 0.00 0.00 90 1011.0
20240623093053 73 274 2.0 6.0 0.00 0.00 0.00 90 1011.0
20240623091634 74 224 1.0 4.0 0.00 0.00 0.00 89 1011.1
20240623090050 74 225 1.0 4.0 0.00 0.00 0.00 89 1011.2
20240623084606 74 225 1.0 4.0 0.00 0.00 0.00 89 1011.2
20240623083059 74 260 1.0 4.0 0.00 0.00 0.00 89 1011.2
20240623081551 74 225 1.0 4.0 0.00 0.00 0.00 89 1011.2
20240623080054 74 199 2.0 4.0 0.00 0.00 0.00 89 1011.3
20240623074555 74 220 3.0 6.0 0.00 0.00 0.00 89 1011.2
20240623073100 74 279 2.0 6.0 0.00 0.00 0.00 89 1011.3
20240623071559 75 251 1.0 4.0 0.00 0.00 0.00 88 1011.5
20240623070053 75 234 0.0 3.0 0.00 0.00 0.00 87 1011.6
20240623064554 75 0 1.0 4.0 0.00 0.00 0.00 87 1011.7
20240623063057 76 226 2.0 4.0 0.00 0.00 0.00 86 1012.0
20240623061555 76 226 2.0 5.0 0.00 0.00 0.00 86 1011.9
20240623060109 76 227 1.0 6.0 0.00 0.00 0.00 84 1012.0
20240623054555 77 300 2.0 7.0 0.00 0.00 0.00 84 1012.0
20240623053055 77 217 2.0 8.0 0.00 0.00 0.00 85 1012.0
20240623051555 77 230 2.0 7.0 0.00 0.00 0.00 84 1012.0
20240623050055 77 234 2.0 6.0 0.00 0.00 0.00 84 1012.3
20240623044551 77 243 2.0 5.0 0.00 0.00 0.00 84 1012.4
20240623043108 77 221 1.0 5.0 0.00 0.00 0.00 84 1012.6
20240623041604 77 215 1.0 3.0 0.00 0.00 0.00 84 1012.6
20240623040110 78 238 1.0 3.0 0.00 0.00 0.00 83 1012.7
20240623034555 78 232 1.0 4.0 0.00 0.00 0.00 83 1012.6
20240623033053 78 225 1.0 2.0 0.00 0.00 0.00 84 1012.6